Location: Saint-Usage
(47.1052°N, 5.2587°E)
Time: 01:54:15
(UTC+02:00)

ISS - Pass Details

Date: 27 September 2021
Orbit: 417 x 423 km, 51.6° (Epoch: 26 October)

Event Time Altitude Azimuth Distance (km) Brightness Sun altitude
Rises 21:47:17 0° 294° (WNW) 2,367 1.5 -24.2°
Reaches altitude 10° 21:49:24 10° 298° (WNW) 1,503 0.1 -24.5°
Enters shadow 21:51:30 34° 311° (NW) 711 -2.1 -24.8°
